{"data":{"norad_id":68759,"epoch":"2026-09-19T22:31:46.278912Z","epoch_age_seconds":108153,"freshness":"FRESH","line1":"1 68759U 26083G   26262.93873008  .00001916  00000+0  13389-3 0  9993","line2":"2 68759  97.8249  41.6980 0012632  99.0486 261.2171 15.06520084 23459","mean_motion":15.06520084,"eccentricity":0.0012632,"inclination_deg":97.8249,"raan_deg":41.698,"arg_perigee_deg":99.0486,"mean_anomaly_deg":261.2171,"bstar":0.00013389,"rev_number":2345,"period_min":95.584520597735,"perigee_km":538.09590679975,"apogee_km":555.59117764162,"semimajor_km":6924.9805422207,"source":"CELESTRAK","updated_at":"2026-09-20T09:00:24.452431Z"}}